sat.trackr.live / text

‹ back to catalog

HULIANWANG DIGUI-102

NORAD 66418 · 2025-258G

PAYLOAD ACTIVE UNKNOWN

§ Identity

Operator
Country
PRC
Launch date
2025-11-10
Launch site
WSC
Launch vehicle
Mass (kg)
RCS (m²)

External: N2YO · Heavens-Above · Gunter

§ Orbital elements

Epoch: 2026-09-19T20:09:22.186368Z

Period
108.33 min
Inclination
50.0027°
Eccentricity
0.0000017
Mean motion
13.29326632 rev/d
Perigee alt
1,149.3 km
Apogee alt
1,149.3 km
Semi-major
7,527.4 km
B*
7.5546e-5
RAAN
315.9364°
Arg perigee
312.0388°
Mean anomaly
48.0483°
Rev number
4,232

§ Raw data

HULIANWANG DIGUI-1021 66418U 25258G   26262.83984012 -.00000089  00000+0  75546-4 0  99982 66418  50.0027 315.9364 0000017 312.0388  48.0483 13.29326632 42320

JSON: /api/v1/satellites/66418 · /tle

For live sub-satellite position, see the globe view (requires WebGL).

§ Visibility from observer

Set your observer location to see the next 7 days of passes ≥ 10°. The values pass through the URL so the page stays shareable.

No JS? Fill the form by hand. The geolocation button needs JavaScript.